Regional Weather Roundup
Issued by NWS

Home | Current Version | Previous Version | Graphics & Text | Print | Product List | Glossary On
Versions: 1 2 3 4 5 6 7 8 9 10 11 12 13 14 15 16 17 18 19 20 21 22 23 24 25 26 27 28 29 30 31 32 33 34 35 36 37 38 39 40 41 42 43 44 45 46 47 48 49 50
000
ASUS44 KMEG 271810
RWRTN
TENNESSEE HOURLY STATE WEATHER ROUNDUP
NATIONAL WEATHER SERVICE MEMPHIS TN
100 PM CDT SAT AUG 27 2016

TNZ002-004-019-021-049-052-054-088>092-271900-
WEST TENNESSEE

CITY           SKY/WX    TMP DP  RH WIND       PRES   REMARKS
MEMPHIS INTL   MOSUNNY   90  73  57 VRB3      30.07F HX  98
NWS MEMPHIS      N/A     88 N/A N/A MISG        N/A
JACKSON        SUNNY     88  76  67 CALM      30.07F HX  99
DYERSBURG      SUNNY     93  73  52 MISG      30.06  HX 102
UNION CITY     SUNNY     86  75  70 CALM      30.06F HX  95
PARIS          SUNNY     88  73  62 CALM      30.09F HX  96
$$

TNZ008-025-027-028-033-062-065-066-271900-
NORTH MIDDLE TENNESSEE

CITY           SKY/WX    TMP DP  RH WIND       PRES   REMARKS
NASHVILLE      MOSUNNY   92  71  50 NE6       30.09F HX  98
CLARKSVILLE    PTSUNNY   87  73  62 CALM      30.09F HX  94
SMYRNA         MOSUNNY   91  72  52 CALM      30.10F HX  98
COOKEVILLE     SUNNY     91  73  55 E3        30.11F HX 100
CROSSVILLE     PTSUNNY   85  67  54 CALM      30.18F
$$

TNZ061-075-076-078-094-096-097-271900-
SOUTH MIDDLE TENNESSEE

CITY           SKY/WX    TMP DP  RH WIND       PRES   REMARKS
FAYETTEVILLE   SUNNY     88  72  58 CALM      30.10F HX  94
TULLAHOMA      SUNNY     88  70  55 NW8       30.13S HX  92
WINCHESTER     MOSUNNY   90  73  58 S6        30.11F HX  98
MCMINNVILLE    SUNNY     91  75  59 NW16      30.11F HX 102
COLUMBIA       MOSUNNY   91  79  66 CALM      30.08F HX 107
SHELBYVILLE    SUNNY     91  77  62 CALM      30.10F HX 105
$$

TNZ017-018-042-046-047-271900-
NORTHEAST TENNESSEE

CITY           SKY/WX    TMP DP  RH WIND       PRES   REMARKS
TRI CITIES     MOSUNNY   91  67  44 CALM      30.17S HX  94
ELIZABETHTON   PTSUNNY   91  70  49 VRB5G12   30.16S HX  97
$$

TNZ012-013-036-069-073-074-271900-
CENTRAL EAST TENNESSEE

CITY           SKY/WX    TMP DP  RH WIND       PRES   REMARKS
KNOXVILLE      MOSUNNY   93  68  43 VRB3      30.11F HX  97
OAK RIDGE      MOSUNNY   93  70  46 CALM      30.13F HX  99
GATLINBURG       N/A     91  70  49 E6        30.12S HX  97
MORRISTOWN     MOSUNNY   91  70  49 SW8       30.14S HX  97
$$

TNZ083-085-099-271900-
SOUTHEAST TENNESSEE

CITY           SKY/WX    TMP DP  RH WIND       PRES   REMARKS
CHATTANOOGA    MOSUNNY   93  69  45 CALM      30.10F HX  98
$$

SKY/WX REPORTED AS FAIR MEANS FEW OR NO CLOUDS BELOW
12 THOUSAND FEET.





USA.gov is the U.S. government's official web portal to all federal, state and local government web resources and services.